Barnwell, SC

7:09 AM EST on January 24, 2018 (GMT -0500)
Barnwell County

Weather History for KBNL - November, 2012

Change the Weather History Date:

Monday, November 12, 2012

  Actual Average (KOGB) Record (KOGB)
Temperature  
Mean Temperature 64 °F -  
Max Temperature 73 °F 68 °F 85 °F (1989)
Min Temperature 55 °F 43 °F 25 °F (1973)
Degree Days  
Heating Degree Days 1    
Growing Degree Days 14 (Base 50)    
Moisture  
Dew Point 61 °F    
Average Humidity 90    
Maximum Humidity 100    
Minimum Humidity 69    
Precipitation  
Precipitation 0.06 in - - ()
Sea Level Pressure  
Sea Level Pressure 30.28 in    
Wind  
Wind Speed 1 mph (SSE)    
Max Wind Speed 10 mph    
Max Gust Speed -    
Visibility 7 miles    
Events Fog , Rain    
Averages and records for this station are not official NWS values.
T = Trace of Precipitation, MM = Missing Value Source: NWS Daily Summary

Daily Weather History Graph

Daily Weather History Graph

Search for Another Location

Airport or City:

Trip Planner

Search our weather history database for the weather conditions in past years. The results will help you decide how hot, cold, wet, or windy it might be!

Date:

Astronomy

Nov. 12, 2012 Rise Set
Actual Time 6:54 AM EST 5:24 PM EST
Civil Twilight 6:28 AM EST 5:51 PM EST
Nautical Twilight 5:58 AM EST 6:20 PM EST
Astronomical Twilight 5:28 AM EST 6:50 PM EST
Moon 5:20 AM EST (11/12) 4:27 PM EST (11/12)
Length of Visible Light 11h 22m
Length of Day
10h 30m
Waning Crescent, 2% of the Moon is Illuminated
Nov 12
Waning Crescent
Nov 13
New
Nov 20
First Quarter
Nov 28
Full
Dec 6
Last Quarter

Hourly Weather History & Observations

Time (EST) Temp. Dew Point Humidity Pressure Visibility Wind Dir Wind Speed Gust Speed Precip Events Conditions
12:55 AM 59.0 °F 57.2 °F 94% 30.36 in 10.0 mi Calm Calm - N/A   Clear
1:15 AM 57.2 °F 57.2 °F 100% 30.36 in 10.0 mi Calm Calm - N/A   Clear
1:55 AM 59.0 °F 57.2 °F 94% 30.35 in 10.0 mi Calm Calm - N/A   Clear
2:15 AM 57.2 °F 57.2 °F 100% 30.35 in 8.0 mi Calm Calm - N/A   Clear
2:35 AM 57.2 °F 57.2 °F 100% 30.34 in 7.0 mi Calm Calm - N/A   Clear
3:15 AM 57.2 °F 57.2 °F 100% 30.33 in 3.0 mi Calm Calm - N/A   Clear
3:35 AM 57.2 °F 55.4 °F 94% 30.33 in 4.0 mi Calm Calm - N/A   Clear
3:55 AM 57.2 °F 57.2 °F 100% 30.33 in 3.0 mi Calm Calm - N/A   Clear
4:15 AM 55.4 °F 55.4 °F 100% 30.32 in 2.0 mi Calm Calm - N/A   Clear
4:35 AM 57.2 °F 55.4 °F 94% 30.32 in 1.2 mi Calm Calm - N/A   Clear
4:55 AM 55.4 °F 55.4 °F 100% 30.32 in 0.5 mi Calm Calm - N/A Fog Fog
5:15 AM 57.2 °F 55.4 °F 94% 30.31 in 3.0 mi Calm Calm - N/A   Clear
5:35 AM 57.2 °F 55.4 °F 94% 30.32 in 3.0 mi Calm Calm - N/A   Clear
6:15 AM 57.2 °F 57.2 °F 100% 30.32 in 4.0 mi Calm Calm - N/A   Clear
6:35 AM 57.2 °F 55.4 °F 94% 30.32 in 3.0 mi Calm Calm - N/A   Clear
7:15 AM 57.2 °F 57.2 °F 100% 30.32 in 2.5 mi Calm Calm - N/A   Overcast
7:35 AM 59.0 °F 57.2 °F 94% 30.32 in 3.0 mi Calm Calm - N/A   Overcast
8:15 AM 60.8 °F 60.8 °F 100% 30.33 in 5.0 mi Calm Calm - N/A   Scattered Clouds
8:35 AM 60.8 °F 60.8 °F 100% 30.33 in 7.0 mi Calm Calm - N/A   Clear
8:55 AM 62.6 °F 60.8 °F 94% 30.33 in 9.0 mi Calm Calm - N/A   Clear
9:15 AM 64.4 °F 60.8 °F 88% 30.34 in 10.0 mi Calm Calm - N/A   Scattered Clouds
9:35 AM 64.4 °F 60.8 °F 88% 30.34 in 10.0 mi Calm Calm - N/A   Scattered Clouds
9:55 AM 66.2 °F 60.8 °F 83% 30.34 in 10.0 mi Calm Calm - N/A   Mostly Cloudy
10:15 AM 66.2 °F 62.6 °F 88% 30.35 in 10.0 mi Calm Calm - N/A   Scattered Clouds
10:35 AM 66.2 °F 62.6 °F 88% 30.34 in 10.0 mi Calm Calm - N/A   Scattered Clouds
10:55 AM 68.0 °F 62.6 °F 83% 30.34 in 10.0 mi Calm Calm - N/A   Mostly Cloudy
11:15 AM 71.6 °F 62.6 °F 73% 30.33 in 10.0 mi ESE 4.6 mph - N/A   Scattered Clouds
11:35 AM 71.6 °F 62.6 °F 73% 30.32 in 10.0 mi SE 4.6 mph - N/A   Scattered Clouds
11:55 AM 71.6 °F 62.6 °F 73% 30.31 in 10.0 mi South 6.9 mph - N/A   Partly Cloudy
12:15 PM 73.4 °F 62.6 °F 69% 30.30 in 10.0 mi SSE 6.9 mph - N/A   Partly Cloudy
12:35 PM 73.4 °F 62.6 °F 69% 30.29 in 10.0 mi SSE 10.4 mph - N/A   Mostly Cloudy
12:55 PM 73.4 °F 62.6 °F 69% 30.28 in 8.0 mi South 6.9 mph - N/A   Mostly Cloudy
1:15 PM 73.4 °F 62.6 °F 69% 30.27 in 10.0 mi South 8.1 mph - N/A   Mostly Cloudy
1:35 PM 73.4 °F 62.6 °F 69% 30.26 in 10.0 mi SSE 3.5 mph - N/A   Mostly Cloudy
1:55 PM 73.4 °F 62.6 °F 69% 30.25 in 10.0 mi SSE 4.6 mph - N/A   Mostly Cloudy
2:15 PM 73.4 °F 62.6 °F 69% 30.25 in 10.0 mi South 6.9 mph - N/A   Mostly Cloudy
2:35 PM 73.4 °F 62.6 °F 69% 30.24 in 9.0 mi South 5.8 mph - N/A   Mostly Cloudy
2:55 PM 73.4 °F 62.6 °F 69% 30.24 in 10.0 mi SSE 6.9 mph - N/A   Mostly Cloudy
3:15 PM 71.6 °F 62.6 °F 73% 30.24 in 10.0 mi ESE 9.2 mph - N/A   Mostly Cloudy
3:35 PM 69.8 °F 64.4 °F 83% 30.24 in 3.0 mi ESE 4.6 mph - 0.01 in Rain Light Rain
3:55 PM 69.8 °F 64.4 °F 83% 30.23 in 10.0 mi Calm Calm - 0.01 in   Mostly Cloudy
4:15 PM 68.0 °F 64.4 °F 88% 30.24 in 10.0 mi Calm Calm - N/A   Overcast
4:35 PM 66.2 °F 62.6 °F 88% 30.25 in 2.0 mi SSW 8.1 mph - 0.03 in Rain Rain
4:55 PM 64.4 °F 64.4 °F 100% 30.25 in 10.0 mi South 3.5 mph - 0.05 in   Mostly Cloudy
5:15 PM 64.4 °F 64.4 °F 100% 30.25 in 10.0 mi Calm Calm - N/A   Overcast
5:35 PM 66.2 °F 64.4 °F 94% 30.24 in 10.0 mi Calm Calm - N/A   Overcast
5:55 PM 64.4 °F 64.4 °F 100% 30.25 in 10.0 mi Calm Calm - N/A   Overcast
6:15 PM 64.4 °F 64.4 °F 100% 30.25 in 10.0 mi Calm Calm - N/A   Overcast
6:35 PM 64.4 °F 64.4 °F 100% 30.25 in 10.0 mi Calm Calm - N/A   Overcast
6:55 PM 64.4 °F 64.4 °F 100% 30.24 in 10.0 mi Calm Calm - N/A   Overcast
7:15 PM 64.4 °F 64.4 °F 100% 30.24 in 5.0 mi Calm Calm - N/A   Overcast
7:35 PM 64.4 °F 64.4 °F 100% 30.23 in 7.0 mi Calm Calm - N/A   Mostly Cloudy
8:15 PM 62.6 °F 62.6 °F 100% 30.23 in 9.0 mi Calm Calm - N/A   Clear
8:35 PM 64.4 °F 62.6 °F 94% 30.23 in 10.0 mi Calm Calm - N/A   Clear
9:15 PM 62.6 °F 62.6 °F 100% 30.22 in 10.0 mi Calm Calm - N/A   Clear
9:35 PM 62.6 °F 62.6 °F 100% 30.22 in 9.0 mi Calm Calm - N/A   Clear
9:55 PM 62.6 °F 62.6 °F 100% 30.22 in 3.0 mi Calm Calm - N/A   Clear
10:15 PM 62.6 °F 60.8 °F 94% 30.22 in 2.0 mi Calm Calm - N/A   Clear
10:35 PM 62.6 °F 60.8 °F 94% 30.21 in 0.5 mi Calm Calm - N/A Fog Fog
10:55 PM 62.6 °F 62.6 °F 100% 30.20 in 6.0 mi Calm Calm - N/A   Clear
11:15 PM 62.6 °F 62.6 °F 100% 30.20 in 7.0 mi Calm Calm - N/A   Clear
11:35 PM 62.6 °F 62.6 °F 100% 30.21 in 7.0 mi Calm Calm - N/A   Clear
11:55 PM 62.6 °F 62.6 °F 100% 30.20 in 7.0 mi Calm Calm - N/A   Clear